Regional Weather Roundup
Issued by NWS Northern Indiana

Home | Current Version | Previous Version | Graphics & Text | Print | Product List | Glossary On
Versions: 1 2 3 4 5 6 7 8 9 10 11 12 13 14 15 16 17 18 19 20 21 22 23 24 25 26 27 28 29 30 31 32 33 34 35 36 37 38 39 40 41 42 43 44 45 46 47 48 49 50
000
ASUS43 KIWX 221900
RWRIWX

KIWX WEATHER ROUNDUP
NATIONAL WEATHER SERVICE NORTHERN INDIANA
300 PM EDT WED MAR 22 2017

NOTE: "FAIR" INDICATES FEW OR NO CLOUDS BELOW 12,000 FEET WITH NO
SIGNIFICANT WEATHER AND/OR OBSTRUCTIONS TO VISIBILITY.

* THESE STATIONS ARE NOT UNDER NWS QUALITY CONTROL. THEY ALSO MAY NOT
  REPORT WEATHER SUCH AS PRECIPITATION OR FOG.

INZ001>027-222000-
NORTHERN INDIANA

CITY           SKY/WX    TMP DP  RH WIND       PRES   REMARKS
GARY*          MOSUNNY   34  14  44 NE12      30.59F WCI  25
KNOX*          SUNNY     36 -13  12 CALM      30.55F
SOUTH BEND     SUNNY     35  10  35 MISG      30.55F
ELKHART*       SUNNY     34   9  35 CALM      30.55F
GOSHEN         SUNNY     35  11  36 NE8       30.54F WCI  29
MONTICELLO*    SUNNY     35  16  45 E6        30.52F WCI  30
ANGOLA*        SUNNY     34  14  44 VRB5      30.53F WCI  30
FORT WAYNE     MOSUNNY   34  14  43 VRB7      30.54F WCI  28

$$
INZ028>050-222000-
CENTRAL INDIANA

CITY           SKY/WX    TMP DP  RH WIND       PRES   REMARKS
LAFAYETTE      SUNNY     36  18  48 E12       30.52F
KOKOMO*        SUNNY     35  21  56 NE9G18    30.53F WCI  28
MUNCIE*        SUNNY     36  19  50 E13       30.51F
INDIANAPOLIS   MOSUNNY   38  15  39 NE9       30.49F

$$
MIZ043>046-050>051-056>058-064>065-071>073-077>080-222000-
SOUTHWEST LOWER MICHIGAN

CITY           SKY/WX    TMP DP  RH WIND       PRES   REMARKS
BATTLE CREEK   SUNNY     34   9  35 VRB6      30.55F WCI  29
BENTON HARBOR  SUNNY     32  14  47 N8        30.57F WCI  25
COLDWATER*     SUNNY     34   9  35 N5        30.53F WCI  29
HILLSDALE*     SUNNY     32  12  43 E3        30.52S
HOLLAND        SUNNY     35  11  36 E6        30.57F WCI  30
GRAND RAPIDS   SUNNY     35  10  35 NW6       30.56F WCI  30
KALAMAZOO      SUNNY     35   8  32 VRB5      30.55F WCI  31
STURGIS*       SUNNY     33  12  41 CALM      30.53F
THREE RIVERS*  FAIR      33  11  40 NE3       30.55F

$$
OHZ001>008-015>018-024>025-222000-
NORTHWEST OHIO

CITY           SKY/WX    TMP DP  RH WIND       PRES   REMARKS
DEFIANCE       SUNNY     33  13  43 N8        30.55F WCI  26
FINDLAY        SUNNY     35  14  42 N6G18     30.52F WCI  30
TOLEDO EXPRESS SUNNY     35  11  36 NE8       30.54F WCI  29
TOLEDO METCALF SUNNY     32  15  49 VRB6      30.57F WCI  26
LIMA           SUNNY     33  16  49 NE6       30.51F WCI  28

$$
AND FOR LAKE MICHIGAN COASTAL AND OPEN LAKE BUOY OBSERVATIONS

STATION/POSITION TEMP    WIND        PRES    VSBY  WAVE
                 AIR SEA DIR/SP/G                  HT/PER
                 (F)     (DEG/KT/KT) (MB)    (MI)  (FT/S)
CALUMET HARBOR    28      20/ 10/ 14 1035.1S
MICHIGAN CITY     27     360/ 12/ 13   N/A
BURNS HARBOR      27      20/  8/ 11 1035.9S
SAINT JOSEPH      29     360/  7/ 10 1035.9

$$
&&




USA.gov is the U.S. government's official web portal to all federal, state and local government web resources and services.